This is the latest recevied weather packets stored in our database for station/object KB3YCK-2. If no packets are shown the sender has not sent any weather packets the latest 10 day(s).
| Time | Temp. | Humidity | Pressure | Rain* | Wind** | Luminosity | Snow |
|---|---|---|---|---|---|---|---|
| 1777729516 | 10° C | 80% | 1014 hPa | 0 mm | - | 538 W/m² | - |
| 1777728905 | 9.44° C | 81% | 1013.9 hPa | 0 mm | - | 520 W/m² | - |
| 1777726809 | 8.33° C | 83% | 1014 hPa | 0 mm | - | 169 W/m² | - |
| 1777726509 | 8.33° C | 82% | 1014 hPa | 0 mm | - | 232 W/m² | - |
| 1777726209 | 8.33° C | 82% | 1014.2 hPa | 0 mm | - | 172 W/m² | - |
| 1777725605 | 8.33° C | 82% | 1014.2 hPa | 0 mm | - | 200 W/m² | - |
| 1777723215 | 8.33° C | 83% | 1013.7 hPa | 0 mm | - | 79 W/m² | - |
| 1777722911 | 8.33° C | 83% | 1013.6 hPa | 0 mm | - | 67 W/m² | - |
| 1777721408 | 8.33° C | 83% | 1013.6 hPa | 0 mm | - | 56 W/m² | - |
| 1777720525 | 8.33° C | 84% | 1013.5 hPa | 0 mm | - | 49 W/m² | - |
| 1777719624 | 8.33° C | 85% | 1013.4 hPa | 0 mm | - | 40 W/m² | - |
| 1777716308 | 8.89° C | 84% | 1012.7 hPa | 0 mm | - | 0 W/m² | - |
| 1777715130 | 8.89° C | 85% | 1012.7 hPa | 0 mm | - | 0 W/m² | - |
| 1777707903 | 8.89° C | 87% | 1012.1 hPa | 0 mm | - | 0 W/m² | - |
| 1777703406 | 10° C | 85% | 1012.5 hPa | 0 mm | - | 0 W/m² | - |
| 1777701614 | 9.44° C | 87% | 1012.7 hPa | 0 mm | - | 0 W/m² | - |
| 1777700102 | 10° C | 87% | 1012.6 hPa | 0 mm | - | 0 W/m² | - |
| 1777698304 | 10° C | 87% | 1012.9 hPa | 0 mm | - | 0 W/m² | - |
| 1777695906 | 10.56° C | 87% | 1012.7 hPa | 0 mm | - | 0 W/m² | - |
| 1777694411 | 10.56° C | 87% | 1012.6 hPa | 0 mm | - | 0 W/m² | - |
| 1777693204 | 10.56° C | 87% | 1012.5 hPa | 0 mm | - | 0 W/m² | - |
| 1777692907 | 10.56° C | 87% | 1012.4 hPa | 0 mm | - | 0 W/m² | - |
| 1777690503 | 10.56° C | 87% | 1012.3 hPa | 0 mm | - | 0 W/m² | - |
| 1777689008 | 10.56° C | 86% | 1012.1 hPa | 0 mm | - | 0 W/m² | - |
| 1777687502 | 11.11° C | 85% | 1012.6 hPa | 0 mm | - | 0 W/m² | - |
* Rain latest hour (hover to see other rain measurements)
** Current wind speed in m/s (hover to see current wind gust speed)